Location: Tucson
(32.2217°N, 110.9265°W)
Time: 06:21:45
(UTC-07:00)

Vanguard 2 - Visible Passes

Search period start: 25 October 2021 00:00
Search period end: 04 November 2021 00:00
Orbit: 553 x 2936 km, 32.9° (Epoch: 24 October)

Date Brightness Start Highest point End Pass type
(mag) Time Alt. Az. Time Alt. Az. Time Alt. Az.
25 Oct 9.5 03:10:08 40° E 03:10:08 40° E 03:13:57 10° E visible
25 Oct 8.0 05:11:32 27° W 05:16:17 83° SSW 05:21:36 10° ESE visible
25 Oct 11.6 20:42:49 10° SSE 20:44:39 12° SSE 20:44:39 12° SSE visible
26 Oct 9.1 03:26:48 55° E 03:26:48 55° E 03:31:41 10° E visible
26 Oct 8.1 05:28:12 20° W 05:34:02 70° SSW 05:39:13 10° ESE visible
26 Oct 11.5 20:57:05 10° S 21:01:26 16° S 21:01:26 16° S visible
27 Oct 8.7 03:43:29 74° E 03:43:29 74° E 03:49:26 10° E visible
27 Oct 8.3 05:44:52 14° W 05:51:40 55° SSW 05:56:42 10° SE visible
27 Oct 11.4 21:12:40 10° SSW 21:18:16 20° S 21:18:16 20° S visible
28 Oct 11.0 01:58:46 12° E 01:58:46 12° E 01:59:07 10° E visible
28 Oct 8.5 04:00:10 85° W 04:00:27 89° SSW 04:07:10 10° E visible
28 Oct 8.7 06:01:46 10° W 06:09:10 40° SSW 06:13:59 10° SE visible
28 Oct 11.5 19:27:58 10° SSE 19:33:05 12° SE 19:33:43 12° SE visible
28 Oct 11.3 21:28:55 10° SSW 21:35:07 24° S 21:35:07 24° S visible
29 Oct 10.8 02:15:28 18° E 02:15:28 18° E 02:16:53 10° E visible
29 Oct 8.5 04:16:52 66° W 04:18:17 80° SSW 04:24:50 10° ESE visible
29 Oct 11.3 19:40:35 10° S 19:50:36 18° SE 19:50:36 18° SE visible
29 Oct 11.3 21:45:38 10° SW 21:52:01 26° SSW 21:52:01 26° SSW visible
30 Oct 10.4 02:32:12 25° E 02:32:12 25° E 02:34:40 10° E visible
30 Oct 8.6 04:33:36 50° W 04:36:02 68° SSW 04:42:25 10° ESE visible
30 Oct 11.1 19:55:36 10° S 20:07:31 25° SE 20:07:31 25° SE visible
30 Oct 11.3 22:02:43 10° SW 22:08:56 27° SW 22:08:56 27° SW visible
31 Oct 10.1 02:48:56 33° E 02:48:56 33° E 02:52:27 10° E visible
31 Oct 8.7 04:50:20 38° W 04:53:38 55° SSW 04:59:51 10° SE visible
31 Oct 10.8 20:11:31 10° SSW 20:24:27 33° SSE 20:24:27 33° SSE visible
31 Oct 11.3 22:20:07 10° SW 22:25:51 26° SW 22:25:51 26° SW visible
01 Nov 9.7 03:05:43 42° ESE 03:05:43 42° ESE 03:10:11 10° ESE visible
01 Nov 9.0 05:07:07 28° W 05:11:06 42° SW 05:17:05 10° SE visible
01 Nov 11.4 18:25:58 10° SSE 18:32:44 14° SE 18:39:48 10° ESE visible
01 Nov 10.7 20:27:59 10° SSW 20:41:22 41° SSE 20:41:22 41° SSE visible
01 Nov 11.4 22:37:45 10° WSW 22:42:47 24° WSW 22:42:47 24° WSW visible
02 Nov 9.4 03:22:31 52° SE 03:22:31 52° SE 03:27:50 10° ESE visible
02 Nov 9.4 05:23:56 21° W 05:28:24 31° SW 05:34:01 10° SSE visible
02 Nov 11.2 18:39:46 10° S 18:50:09 20° SE 18:56:52 16° ESE visible
02 Nov 10.5 20:44:51 10° SW 20:58:17 48° S 20:58:17 48° S visible
02 Nov 11.5 22:55:36 10° WSW 22:59:41 21° WSW 22:59:41 21° WSW visible
03 Nov 9.2 03:39:21 57° SSE 03:39:21 57° SSE 03:45:24 10° ESE visible
03 Nov 9.8 05:40:46 14° W 05:45:34 22° SW 05:50:31 10° S visible
03 Nov 11.0 18:55:11 10° S 19:07:32 28° SE 19:13:46 23° ESE visible
03 Nov 10.5 21:02:03 10° SW 21:15:10 54° S 21:15:10 54° S visible
03 Nov 11.6 23:13:37 10° WSW 23:16:35 18° WSW 23:16:35 18° WSW visible
